Stations météo

Publicité
Gourette, France (7775): Température de l'air & dewpoint: 06.12.2018 21:00:00 - 12.12.2018 21:00:00 (CET)Gourette, France (7775): Vitesse du vent & gusts: 06.12.2018 21:00:00 - 12.12.2018 21:00:00 (CET)Gourette, France (7775): Direction du vent: 06.12.2018 21:00:00 - 12.12.2018 21:00:00 (CET)Gourette, France (7775): reduced air pressure: 06.12.2018 21:00:00 - 12.12.2018 21:00:00 (CET)Gourette, France (7775): visibility: 06.12.2018 21:00:00 - 12.12.2018 21:00:00 (CET)Gourette, France (7775): Quantités de précipitations: 06.12.2018 21:00:00 - 12.12.2018 21:00:00 (CET)
Date & Time tt [°C] td [°C] ff [km/h] ff [knt] fx [km/h] fx [knt] dd ppp [hPa] vv [km] rr [mm]
12.12.2018 21:00:00 - - - - - - - - - -
12.12.2018 20:00:00 10,0 6,7 16 9 23 13 NNW 1015,8 - 0,0
12.12.2018 19:00:00 9,8 7,4 16 9 25 14 NNW 1015,6 15 0,0
12.12.2018 18:00:00 10,3 6,8 6 4 16 9 N 1015,8 - 0,0
12.12.2018 17:00:00 10,7 7,2 14 7 23 12 WSW 1015,7 - 0,0
12.12.2018 16:00:00 11,4 7,3 18 10 32 17 SW 1016,1 - 0,0
12.12.2018 15:00:00 12,7 6,5 20 11 35 19 SSE 1015,9 - 0,0
12.12.2018 14:00:00 12,2 7,3 21 11 42 23 SSE 1016,3 - 0,0
12.12.2018 13:00:00 13,7 7,9 16 9 31 17 ESE 1016,9 - 0,0
12.12.2018 12:00:00 14,2 5,8 10 6 22 12 S 1017,5 - 0,0
12.12.2018 11:00:00 15,2 5,9 12 6 19 10 SW 1017,7 - 0,0
12.12.2018 10:00:00 14,2 5,0 13 7 19 10 SSW 1017,7 28 0,0
12.12.2018 09:00:00 10,9 3,4 16 9 18 10 SW 1017,8 - 0,0
12.12.2018 08:00:00 10,2 2,1 11 6 13 7 WSW 1017,6 - 0,0
12.12.2018 07:00:00 10,5 1,8 7 4 12 7 WSW 1017,5 - 0,0
12.12.2018 06:00:00 9,8 1,9 10 5 11 6 SW 1017,3 - 0,0
12.12.2018 05:00:00 11,4 1,6 7 4 14 7 W 1017,5 - 0,0
12.12.2018 04:00:00 11,6 1,5 10 6 13 7 NW 1017,6 - 0,0
12.12.2018 03:00:00 11,9 1,2 7 4 11 6 NW 1017,8 - 0,0
12.12.2018 02:00:00 11,9 0,0 9 5 21 11 NW 1017,8 - 0,0
12.12.2018 01:00:00 11,5 -0,3 16 9 19 10 NNW 1018,0 - 0,0
12.12.2018 00:00:00 11,8 -1,0 16 8 19 10 NW 1018,1 - 0,0
11.12.2018 23:00:00 11,9 -1,3 14 8 17 9 NW 1018,3 - 0,0
11.12.2018 22:00:00 12,2 -1,4 14 8 18 10 NW 1018,2 - 0,0
11.12.2018 21:00:00 11,9 -0,3 14 8 17 9 NNW 1018,1 - 0,0
11.12.2018 20:00:00 12,1 -0,1 15 8 18 10 NW 1017,9 - 0,0
11.12.2018 19:00:00 11,8 0,5 15 8 19 10 NNW 1017,9 - 0,0
11.12.2018 18:00:00 11,8 1,7 16 8 20 11 NNW 1017,6 - 0,0
11.12.2018 17:00:00 11,5 1,4 16 9 19 10 NNW 1017,5 - 0,0
11.12.2018 16:00:00 14,0 2,9 9 5 12 7 NNW 1017,2 30 0,0
11.12.2018 15:00:00 16,8 3,5 7 4 14 8 N 1017,1 - 0,0
11.12.2018 14:00:00 15,8 4,8 11 6 21 11 NNE 1017,1 - 0,0
11.12.2018 13:00:00 17,9 5,8 8 5 18 10 ENE 1017,5 30 0,0
11.12.2018 12:00:00 18,0 6,2 10 5 22 12 NE 1017,7 - 0,0
11.12.2018 11:00:00 16,6 4,3 6 4 11 6 NNE 1018,3 - 0,0
11.12.2018 10:00:00 - - - - - - - - - -
11.12.2018 09:00:00 13,7 2,3 9 5 18 10 WSW 1018,1 - 0,0
11.12.2018 08:00:00 12,3 -0,3 13 7 15 8 WNW 1017,6 - 0,0
11.12.2018 07:00:00 12,8 0,2 9 5 16 9 NW 1017,3 15 0,0
11.12.2018 06:00:00 11,6 0,9 15 8 18 10 NW 1017,5 - 0,0
11.12.2018 05:00:00 12,5 -1,1 13 7 17 9 NW 1017,1 - 0,0
11.12.2018 04:00:00 12,2 -2,5 12 6 16 8 NNW 1017,2 - 0,0
11.12.2018 03:00:00 13,2 -2,3 4 2 9 5 W 1017,5 - 0,0
11.12.2018 02:00:00 13,2 -1,2 4 2 13 7 W 1017,6 - 0,0
11.12.2018 01:00:00 10,6 0,0 9 5 29 16 W 1017,9 - 0,0
11.12.2018 00:00:00 13,0 0,0 16 9 26 14 NNW 1018,0 - 0,0
10.12.2018 23:00:00 12,9 -0,4 15 8 27 15 NW 1018,5 - 0,0
10.12.2018 22:00:00 12,5 -0,8 21 11 27 14 NW 1018,6 - 0,0
10.12.2018 21:00:00 14,1 -2,0 13 7 23 12 NW 1018,8 - 0,0
10.12.2018 20:00:00 13,4 -2,2 10 5 21 11 WNW 1018,4 - 0,0
10.12.2018 19:00:00 13,4 -2,2 12 6 26 14 WNW 1018,4 - 0,0
10.12.2018 18:00:00 13,5 -2,5 13 7 25 14 W 1018,1 - 0,0
10.12.2018 17:00:00 14,0 -2,0 15 8 27 15 WNW 1017,8 - 0,0
10.12.2018 16:00:00 16,0 -2,5 14 8 45 25 NW 1017,6 - 0,0
10.12.2018 15:00:00 18,0 -2,3 18 10 39 21 N 1017,0 - 0,0
10.12.2018 14:00:00 18,4 -1,5 19 10 46 25 NNW 1016,7 - 0,0
10.12.2018 13:00:00 19,2 0,7 23 12 49 27 N 1016,4 15 0,0
10.12.2018 12:00:00 19,5 1,9 24 13 57 31 N 1016,2 - 0,0
10.12.2018 11:00:00 18,3 -1,6 16 9 42 23 NW 1016,4 - 0,0
10.12.2018 10:00:00 16,2 4,2 17 9 26 14 W 1016,2 15 0,0
10.12.2018 09:00:00 13,4 1,7 12 7 22 12 NW 1015,9 - 0,0
10.12.2018 08:00:00 13,8 -1,8 14 8 24 13 NNW 1015,1 - 0,0
10.12.2018 07:00:00 12,6 -2,5 11 6 19 11 WSW 1014,3 - 0,0
10.12.2018 06:00:00 14,3 -1,4 8 4 24 13 NNE 1013,5 - 0,0
10.12.2018 05:00:00 13,8 -2,2 7 4 35 19 SSW 1013,1 - 0,0
10.12.2018 04:00:00 16,1 -4,0 11 6 41 22 WNW 1013,3 15 0,0
10.12.2018 03:00:00 17,0 -6,2 10 6 29 15 WNW 1012,8 - 0,0
10.12.2018 02:00:00 16,1 -5,1 11 6 25 14 S 1012,4 - 0,0
10.12.2018 01:00:00 15,9 -4,1 10 6 40 22 N 1012,4 - 0,0
10.12.2018 00:00:00 15,2 -1,8 13 7 27 14 ESE 1012,6 - 0,0
09.12.2018 23:00:00 15,8 -1,3 13 7 47 26 S 1012,1 - 0,0
09.12.2018 22:00:00 15,1 0,5 14 8 45 24 S 1012,4 - 0,0
09.12.2018 21:00:00 15,8 0,4 12 6 62 33 ENE 1012,0 - 0,0
09.12.2018 20:00:00 16,7 -1,0 16 9 61 33 NNW 1011,5 - 0,0
09.12.2018 19:00:00 17,2 2,0 40 22 72 39 W 1010,8 12 0,0
09.12.2018 18:00:00 17,4 1,8 37 20 - - W 1010,8 - 0,0
09.12.2018 17:00:00 17,9 0,5 36 19 84 45 W 1009,5 - 0,0
09.12.2018 16:00:00 18,7 0,8 50 27 131 71 W 1009,1 30 0,0
09.12.2018 15:00:00 19,5 1,9 61 33 129 70 W 1007,0 - 0,0
09.12.2018 14:00:00 20,4 1,8 59 32 131 71 WSW 1006,9 - 0,0
09.12.2018 13:00:00 20,8 1,1 59 32 98 53 W 1008,5 25 0,0
09.12.2018 12:00:00 20,8 7,8 13 7 33 18 NNW 1009,0 - 0,0
09.12.2018 11:00:00 18,3 10,4 13 7 35 19 NNE 1009,3 - 0,0
09.12.2018 10:00:00 15,8 7,0 10 5 26 14 W 1011,0 30 0,0
09.12.2018 09:00:00 13,8 5,7 16 9 40 21 SSW 1011,3 - 0,0
09.12.2018 08:00:00 12,1 6,4 6 3 23 13 SSW 1013,1 - 0,0
09.12.2018 07:00:00 11,4 3,9 11 6 16 9 SW 1013,9 - 0,0
09.12.2018 06:00:00 11,5 1,7 13 7 20 11 SW 1014,7 - 0,0
09.12.2018 05:00:00 12,4 0,8 13 7 18 10 N 1015,2 - 0,0
09.12.2018 04:00:00 11,3 1,0 15 8 21 11 N 1015,4 - 0,0
09.12.2018 03:00:00 10,6 0,9 16 9 21 12 N 1016,1 - 0,0
09.12.2018 02:00:00 10,9 0,6 16 9 21 12 N 1015,7 - 0,0
09.12.2018 01:00:00 11,7 -2,9 11 6 13 7 NNE 1016,2 - 0,0
09.12.2018 00:00:00 10,5 -2,2 6 4 13 7 NNW 1016,9 - 0,0
08.12.2018 23:00:00 9,2 -0,2 7 4 14 8 SSW 1017,2 - 0,0
08.12.2018 22:00:00 9,4 0,3 5 3 21 12 WSW 1017,7 - 0,0
08.12.2018 21:00:00 10,4 1,0 4 2 12 6 WSW 1017,7 - 0,0
08.12.2018 20:00:00 11,9 2,1 9 5 18 10 W 1017,4 - 0,0
08.12.2018 19:00:00 10,6 4,1 13 7 19 10 SW 1017,3 12 0,0
08.12.2018 18:00:00 12,5 4,2 6 3 16 9 SSW 1017,3 - 0,0
08.12.2018 17:00:00 14,1 5,7 6 4 11 6 SSW 1016,7 - 0,0
08.12.2018 16:00:00 16,0 6,1 11 6 25 14 S 1016,1 15 0,0
08.12.2018 15:00:00 17,7 5,3 12 7 19 10 SE 1015,1 - 0,0
08.12.2018 14:00:00 17,9 4,5 11 6 17 9 E 1015,1 - 0,0
08.12.2018 13:00:00 18,2 4,4 13 7 18 10 E 1015,3 25 0,0
08.12.2018 12:00:00 19,1 3,7 14 7 24 13 SSW 1015,1 - 0,0
08.12.2018 11:00:00 18,1 2,8 9 5 16 9 S 1015,3 - 0,0
08.12.2018 10:00:00 17,2 3,8 5 3 14 8 S 1015,0 - 0,0
08.12.2018 09:00:00 14,8 2,7 4 2 26 14 SSE 1014,4 - 0,0
08.12.2018 08:00:00 13,2 0,2 13 7 32 17 NNW 1013,4 - 0,0
08.12.2018 07:00:00 14,7 -0,6 22 12 42 23 WNW 1012,3 15 0,0
08.12.2018 06:00:00 15,3 2,4 6 4 18 10 NW 1010,8 - 0,0
08.12.2018 05:00:00 16,3 5,3 5 3 62 34 N 1010,3 - 0,0
08.12.2018 04:00:00 15,7 5,0 40 22 70 38 SW 1010,0 - 0,0
08.12.2018 03:00:00 13,9 7,0 10 6 48 26 SW 1011,0 - 0,0
08.12.2018 02:00:00 13,7 7,9 21 11 35 19 SSW 1011,8 - 0,0
08.12.2018 01:00:00 11,0 8,2 9 5 17 9 SW 1014,1 - 0,0
08.12.2018 00:00:00 12,8 8,7 4 2 22 12 NW 1015,2 - 0,0
07.12.2018 23:00:00 11,9 8,0 12 7 24 13 N 1016,1 - 0,0
07.12.2018 22:00:00 12,3 9,3 11 6 17 9 W 1016,7 - 0,0
07.12.2018 21:00:00 12,0 9,4 13 7 21 12 NNW 1017,2 - 0,0
07.12.2018 20:00:00 13,2 10,2 12 7 21 11 NNW 1018,3 - 0,0
07.12.2018 19:00:00 13,2 11,4 2 1 13 7 N 1017,7 15 0,0
07.12.2018 18:00:00 13,1 11,5 10 5 13 7 N 1019,2 - 0,0
07.12.2018 17:00:00 13,7 11,6 5 3 8 4 N 1019,8 - 0,0
07.12.2018 16:00:00 14,4 11,5 4 2 10 5 S 1020,0 - 0,0
07.12.2018 15:00:00 14,9 11,9 5 3 12 6 SE 1020,6 - 0,0
07.12.2018 14:00:00 15,4 11,8 7 4 18 10 SE 1020,9 - 0,0
07.12.2018 13:00:00 16,7 11,8 10 6 18 10 SE 1021,6 - 0,0
07.12.2018 12:00:00 17,3 11,8 10 5 16 9 S 1022,1 - 0,0
07.12.2018 11:00:00 14,9 11,7 8 4 12 6 SSW 1023,0 25 0,0
07.12.2018 10:00:00 13,9 9,7 8 4 13 7 SSW 1023,3 - 0,0
07.12.2018 09:00:00 13,4 9,1 8 4 10 6 SW 1022,8 - 0,0
07.12.2018 08:00:00 12,7 8,4 6 3 11 6 SW 1022,5 - 0,0
07.12.2018 07:00:00 12,4 8,3 7 4 9 5 SSW 1022,1 15 0,0
07.12.2018 06:00:00 13,6 8,4 3 2 6 3 WNW 1022,3 - 0,0
07.12.2018 05:00:00 13,0 8,3 5 3 11 6 W 1022,3 - 0,0
07.12.2018 04:00:00 12,6 9,4 8 4 19 10 WNW 1022,4 15 0,0
07.12.2018 03:00:00 12,6 10,1 15 8 20 11 NNW 1022,6 - 0,0
07.12.2018 02:00:00 12,5 9,5 16 9 31 17 NNW 1022,6 - 0,0
07.12.2018 01:00:00 12,7 10,8 21 12 34 18 N 1022,4 - 0,0
07.12.2018 00:00:00 13,0 10,4 25 14 38 20 N 1022,5 - 0,0
06.12.2018 23:00:00 12,9 9,2 21 11 31 17 NNW 1022,0 - 0,0
06.12.2018 22:00:00 12,9 9,2 16 9 25 13 N 1021,7 - 0,0
06.12.2018 21:00:00 13,6 9,8 12 7 21 12 NNW 1021,1 - 0,0

tt = Température de l'air
td = dewpoint
ff = Vitesse du vent
fx = gusts
dd = Direction du vent
ppp = reduced air pressure
vv = visibility
rr = Quantités de précipitations

stations d'obs. à proximité